Location: London
(51.5074°N, 0.1278°W)
Time: 07:37:37
(UTC+00:00)

TIGRISAT - Pass Details

Date: 10 October 2020
Orbit: 606 x 688 km, 97.7° (Epoch: 30 October)

Event Time Altitude Azimuth Distance (km) Brightness Sun altitude
Rises 20:29:25 0° 20° (NNE) 3,022 ? -21.2°
Reaches altitude 10° 20:31:48 10° 29° (NNE) 2,115 ? -21.6°
Enters shadow 20:32:30 14° 33° (NNE) 1,869 ? -21.7°
